This is the latest recevied weather packets stored in our database for station/object K7FLA. If no packets are shown the sender has not sent any weather packets the latest 10 day(s).
| Time | Temp. | Humidity | Pressure | Rain* | Wind** | Luminosity | Snow |
|---|---|---|---|---|---|---|---|
| 1778016173 | 18.33° C | 50% | 1094.2 hPa | 0 mm | - | 293 W/m² | - |
| 1778015870 | 17.78° C | 51% | 1094.3 hPa | 0 mm | - | 818 W/m² | - |
| 1778015567 | 17.78° C | 50% | 1094.3 hPa | 0 mm | - | 194 W/m² | - |
| 1778015263 | 17.78° C | 49% | 1094.5 hPa | 0 mm | - | 189 W/m² | - |
| 1778014960 | 17.78° C | 48% | 1094.7 hPa | 0 mm | - | 216 W/m² | - |
| 1778014658 | 18.33° C | 46% | 1094.7 hPa | 0 mm | - | 210 W/m² | - |
| 1778014356 | 18.89° C | 48% | 1094.5 hPa | 0 mm | - | 237 W/m² | - |
| 1778014052 | 17.78° C | 52% | 1094.7 hPa | 0 mm | - | 1096 W/m² | - |
| 1778013750 | 17.78° C | 52% | 1094.6 hPa | 0 mm | - | 288 W/m² | - |
| 1778013447 | 17.78° C | 49% | 1094.5 hPa | 0 mm | - | 238 W/m² | - |
| 1778013144 | 17.78° C | 47% | 1094.5 hPa | 0 mm | - | 462 W/m² | - |
| 1778012839 | 17.22° C | 54% | 1094.7 hPa | 0 mm | - | 1110 W/m² | - |
| 1778012536 | 16.67° C | 51% | 1094.7 hPa | 0 mm | - | 322 W/m² | - |
| 1778012232 | 17.22° C | 49% | 1094.6 hPa | 0 mm | - | 187 W/m² | - |
| 1778011930 | 17.22° C | 52% | 1094.6 hPa | 0 mm | - | 165 W/m² | - |
| 1778011628 | 17.78° C | 51% | 1094.7 hPa | 0 mm | - | 238 W/m² | - |
| 1778011325 | 17.78° C | 51% | 1094.9 hPa | 0 mm | - | 709 W/m² | - |
| 1778011021 | 16.67° C | 55% | 1094.9 hPa | 0 mm | - | 640 W/m² | - |
| 1778010718 | 16.11° C | 56% | 1094.7 hPa | 0 mm | - | 786 W/m² | - |
| 1778010415 | 16.11° C | 57% | 1095 hPa | 0 mm | - | 291 W/m² | - |
| 1778010111 | 16.11° C | 55% | 1095 hPa | 0 mm | - | 124 W/m² | - |
| 1778009808 | 16.67° C | 55% | 1095 hPa | 0 mm | - | 125 W/m² | - |
| 1778009505 | 16.67° C | 55% | 1094.9 hPa | 0 mm | - | 151 W/m² | - |
| 1778009204 | 16.67° C | 56% | 1095 hPa | 0 mm | - | 242 W/m² | - |
| 1778008901 | 16.67° C | 52% | 1095 hPa | 0 mm | - | 366 W/m² | - |
* Rain latest hour (hover to see other rain measurements)
** Current wind speed in m/s (hover to see current wind gust speed)